TimeMDT,TemperatureF,Dew PointF,Humidity,Sea Level PressureIn,VisibilityMPH,Wind Direction,Wind SpeedMPH,Gust SpeedMPH,PrecipitationIn,Events,Conditions,WindDirDegrees,DateUTC
12:16 AM,32.0,32.0,100,29.97,0.2,WSW,9.2,-,N/A,Snow,Heavy Snow,250,2013-05-19 06:16:00
12:36 AM,32.0,30.2,93,29.96,0.2,WNW,10.4,-,N/A,Snow,Heavy Snow,300,2013-05-19 06:36:00
12:56 AM,32.0,30.2,93,29.95,0.2,NW,10.4,-,N/A,,Overcast,320,2013-05-19 06:56:00
1:16 AM,32.0,30.2,93,29.95,0.2,WNW,6.9,-,N/A,Snow,Heavy Snow,290,2013-05-19 07:16:00
1:36 AM,32.0,30.2,93,29.94,0.2,West,8.1,-,N/A,Snow,Heavy Snow,280,2013-05-19 07:36:00
1:56 AM,32.0,30.2,93,29.94,0.2,West,9.2,-,N/A,Snow,Heavy Snow,270,2013-05-19 07:56:00
2:16 AM,32.0,30.2,93,29.93,0.2,West,11.5,16.1,N/A,Snow,Heavy Snow,270,2013-05-19 08:16:00
2:36 AM,32.0,30.2,93,29.93,0.2,West,9.2,-,N/A,Snow,Heavy Snow,270,2013-05-19 08:36:00
2:56 AM,32.0,30.2,93,29.92,0.2,WNW,12.7,-,N/A,Snow,Heavy Snow,290,2013-05-19 08:56:00
3:16 AM,32.0,30.2,93,29.92,0.2,West,13.8,21.9,N/A,Snow,Heavy Snow,280,2013-05-19 09:16:00
3:36 AM,32.0,30.2,93,29.92,0.2,WNW,12.7,21.9,N/A,Snow,Heavy Snow,290,2013-05-19 09:36:00
3:56 AM,-9999,-9999,N/A,29.92,0.2,West,12.7,18.4,N/A,,Unknown,270,2013-05-19 09:56:00
4:16 AM,32.0,30.2,93,29.92,0.2,WNW,11.5,19.6,N/A,Snow,Heavy Snow,290,2013-05-19 10:16:00
4:36 AM,-9999,-9999,N/A,29.92,0.2,West,10.4,-,N/A,,Unknown,260,2013-05-19 10:36:00
4:56 AM,-9999,-9999,N/A,29.92,0.2,West,11.5,16.1,N/A,,Unknown,260,2013-05-19 10:56:00
5:16 AM,-9999,-9999,N/A,29.92,0.2,West,12.7,18.4,N/A,,Unknown,260,2013-05-19 11:16:00
5:36 AM,-9999,-9999,N/A,29.92,0.2,West,12.7,19.6,N/A,,Unknown,260,2013-05-19 11:36:00
6:16 AM,-9999,-9999,N/A,29.91,0.2,West,13.8,18.4,N/A,,Unknown,280,2013-05-19 12:16:00
6:36 AM,-9999,-9999,N/A,29.91,0.2,West,13.8,24.2,N/A,,Unknown,280,2013-05-19 12:36:00
6:56 AM,-9999,-9999,N/A,29.90,0.2,West,13.8,18.4,N/A,,Unknown,280,2013-05-19 12:56:00
7:16 AM,-9999,-9999,N/A,29.91,0.2,West,12.7,20.7,N/A,,Unknown,280,2013-05-19 13:16:00
7:36 AM,-9999,-9999,N/A,29.91,0.2,West,13.8,-,N/A,,Unknown,280,2013-05-19 13:36:00
7:56 AM,-9999,-9999,N/A,29.91,0.2,West,15.0,19.6,N/A,,Unknown,280,2013-05-19 13:56:00
8:16 AM,-9999,-9999,N/A,29.92,0.2,WNW,9.2,19.6,N/A,,Unknown,290,2013-05-19 14:16:00
8:56 AM,-9999,-9999,N/A,29.92,0.2,West,11.5,17.3,N/A,Thunderstorm,Unknown,260,2013-05-19 14:56:00
9:16 AM,-9999,-9999,N/A,29.92,0.2,West,11.5,17.3,N/A,,Unknown,270,2013-05-19 15:16:00
9:36 AM,-9999,-9999,N/A,29.92,0.2,West,13.8,19.6,N/A,,Unknown,280,2013-05-19 15:36:00
9:56 AM,-9999,-9999,N/A,29.92,0.2,West,10.4,17.3,N/A,,Unknown,280,2013-05-19 15:56:00
10:16 AM,-9999,-9999,N/A,29.92,0.2,West,13.8,17.3,N/A,,Unknown,270,2013-05-19 16:16:00
10:36 AM,-9999,-9999,N/A,29.92,0.2,West,13.8,23.0,N/A,,Unknown,280,2013-05-19 16:36:00
10:56 AM,-9999,-9999,N/A,29.92,0.2,WNW,13.8,20.7,N/A,Thunderstorm,Unknown,290,2013-05-19 16:56:00
11:16 AM,-9999,-9999,N/A,29.92,0.2,West,15.0,20.7,N/A,Thunderstorm,Overcast,260,2013-05-19 17:16:00
11:36 AM,-9999,-9999,N/A,29.91,0.2,West,12.7,20.7,N/A,Rain,Light Rain,260,2013-05-19 17:36:00
11:56 AM,-9999,-9999,N/A,29.92,0.2,SW,9.2,20.7,N/A,Rain-Thunderstorm,Light Thunderstorms and Rain,230,2013-05-19 17:56:00
12:16 PM,-9999,-9999,N/A,29.90,0.2,West,20.7,27.6,N/A,Thunderstorm,Unknown,270,2013-05-19 18:16:00
12:36 PM,-9999,-9999,N/A,29.91,0.2,West,15.0,21.9,N/A,,Unknown,280,2013-05-19 18:36:00
1:16 PM,-9999,-9999,N/A,29.92,0.2,West,11.5,21.9,N/A,,Unknown,270,2013-05-19 19:16:00
1:36 PM,-9999,-9999,N/A,29.92,0.2,WNW,11.5,18.4,N/A,Fog,Fog,290,2013-05-19 19:36:00
2:16 PM,-9999,-9999,N/A,29.91,10.0,WNW,16.1,26.5,N/A,,Mostly Cloudy,290,2013-05-19 20:16:00
2:36 PM,-9999,-9999,N/A,29.92,10.0,WNW,16.1,25.3,N/A,,Overcast,300,2013-05-19 20:36:00
2:56 PM,32.0,32.0,100,29.92,10.0,West,16.1,23.0,N/A,,Overcast,270,2013-05-19 20:56:00
3:16 PM,33.8,32.0,93,29.90,10.0,West,19.6,27.6,N/A,Rain,Light Rain,280,2013-05-19 21:16:00
3:36 PM,33.8,32.0,93,29.91,10.0,West,18.4,27.6,N/A,,Mostly Cloudy,270,2013-05-19 21:36:00
3:56 PM,35.6,30.2,81,29.90,10.0,West,17.3,29.9,N/A,,Mostly Cloudy,280,2013-05-19 21:56:00
4:16 PM,35.6,30.2,81,29.92,10.0,West,15.0,24.2,N/A,,Mostly Cloudy,280,2013-05-19 22:16:00
4:36 PM,35.6,30.2,81,29.91,4.0,WNW,12.7,20.7,N/A,Snow,Light Snow,290,2013-05-19 22:36:00
4:56 PM,37.4,30.2,75,29.90,10.0,WNW,11.5,24.2,N/A,,Overcast,290,2013-05-19 22:56:00
5:16 PM,35.6,32.0,87,29.91,7.0,NW,13.8,25.3,N/A,,Overcast,320,2013-05-19 23:16:00
5:36 PM,37.4,30.2,75,29.91,10.0,WNW,15.0,20.7,N/A,,Scattered Clouds,300,2013-05-19 23:36:00
5:56 PM,37.4,30.2,75,29.90,10.0,WNW,16.1,23.0,N/A,,Clear,290,2013-05-19 23:56:00
6:16 PM,37.4,32.0,81,29.90,10.0,WNW,18.4,26.5,N/A,,Mostly Cloudy,290,2013-05-20 00:16:00
6:36 PM,37.4,30.2,75,29.90,10.0,WNW,17.3,24.2,N/A,,Scattered Clouds,300,2013-05-20 00:36:00
6:56 PM,35.6,30.2,81,29.90,10.0,WNW,17.3,24.2,N/A,,Scattered Clouds,290,2013-05-20 00:56:00
7:16 PM,35.6,30.2,81,29.90,10.0,WNW,16.1,21.9,N/A,,Scattered Clouds,300,2013-05-20 01:16:00
7:36 PM,35.6,30.2,81,29.92,10.0,WNW,16.1,24.2,N/A,,Clear,290,2013-05-20 01:36:00
7:56 PM,35.6,30.2,81,29.92,10.0,WNW,15.0,25.3,N/A,,Scattered Clouds,300,2013-05-20 01:56:00
8:16 PM,35.6,32.0,87,29.94,10.0,WNW,13.8,-,N/A,,Mostly Cloudy,300,2013-05-20 02:16:00
8:36 PM,33.8,32.0,93,29.94,10.0,WNW,12.7,18.4,N/A,,Overcast,290,2013-05-20 02:36:00
8:56 PM,33.8,32.0,93,29.94,10.0,West,13.8,20.7,N/A,,Overcast,280,2013-05-20 02:56:00
9:16 PM,33.8,32.0,93,29.94,4.0,WNW,13.8,17.3,N/A,Snow,Light Snow,290,2013-05-20 03:16:00
9:36 PM,33.8,32.0,93,29.94,7.0,WNW,13.8,20.7,N/A,Snow,Light Snow,290,2013-05-20 03:36:00
9:56 PM,33.8,32.0,93,29.94,0.2,West,12.7,18.4,N/A,Snow,Snow,280,2013-05-20 03:56:00
10:16 PM,33.8,32.0,93,29.94,0.2,WNW,13.8,-,N/A,Snow,Light Snow,290,2013-05-20 04:16:00
10:36 PM,33.8,32.0,93,29.94,0.5,WNW,10.4,-,N/A,,Overcast,290,2013-05-20 04:36:00
10:56 PM,33.8,32.0,93,29.94,0.2,West,11.5,-,N/A,Snow,Light Snow,260,2013-05-20 04:56:00
11:16 PM,33.8,32.0,93,29.94,0.2,West,9.2,-,N/A,Snow,Light Snow,260,2013-05-20 05:16:00
11:36 PM,33.8,32.0,93,29.94,0.2,West,11.5,17.3,N/A,Snow,Heavy Snow,260,2013-05-20 05:36:00
11:56 PM,33.8,32.0,93,29.93,0.2,West,13.8,18.4,N/A,Snow,Heavy Snow,270,2013-05-20 05:56:00